This is the latest recevied weather packets stored in our database for station/object W4UWO. If no packets are shown the sender has not sent any weather packets the latest 10 day(s).
| Time | Temp. | Humidity | Pressure | Rain* | Wind** | Luminosity | Snow |
|---|---|---|---|---|---|---|---|
| 1787852633 | 30° C | 54% | 1016.6 hPa | 0 mm | - | 864 W/m² | - |
| 1787852332 | 30.56° C | 53% | 1016.9 hPa | 0 mm | - | 875 W/m² | - |
| 1787852031 | 30.56° C | 56% | 1016.6 hPa | 0 mm | - | 883 W/m² | - |
| 1787851731 | 30.56° C | 53% | 1016.8 hPa | 0 mm | - | 867 W/m² | - |
| 1787851425 | 31.11° C | 53% | 1017 hPa | 0 mm | - | 846 W/m² | - |
| 1787851121 | 30.56° C | 52% | 1016.9 hPa | 0 mm | - | 838 W/m² | - |
| 1787850816 | 30° C | 56% | 1017.1 hPa | 0 mm | - | 835 W/m² | - |
| 1787850512 | 30° C | 55% | 1017 hPa | 0 mm | - | 828 W/m² | - |
| 1787850207 | 30° C | 55% | 1017.2 hPa | 0 mm | - | 827 W/m² | - |
| 1787849901 | 30.56° C | 53% | 1017.3 hPa | 0 mm | - | 836 W/m² | - |
| 1787849601 | 30° C | 55% | 1017.3 hPa | 0 mm | - | 828 W/m² | - |
| 1787849300 | 30° C | 57% | 1017.5 hPa | 0 mm | - | 826 W/m² | - |
| 1787848995 | 29.44° C | 60% | 1017.6 hPa | 0 mm | - | 810 W/m² | - |
| 1787848690 | 29.44° C | 59% | 1017.5 hPa | 0 mm | - | 804 W/m² | - |
| 1787848385 | 28.89° C | 61% | 1017.5 hPa | 0 mm | - | 796 W/m² | - |
| 1787848085 | 28.89° C | 61% | 1017.5 hPa | 0 mm | - | 787 W/m² | - |
| 1787847784 | 29.44° C | 59% | 1017.3 hPa | 0 mm | - | 783 W/m² | - |
| 1787847480 | 29.44° C | 61% | 1017.4 hPa | 0 mm | - | 773 W/m² | - |
| 1787847176 | 28.89° C | 63% | 1017.2 hPa | 0 mm | - | 762 W/m² | - |
| 1787846872 | 28.89° C | 61% | 1017.2 hPa | 0 mm | - | 735 W/m² | - |
| 1787846572 | 28.33° C | 65% | 1017.4 hPa | 0 mm | - | 748 W/m² | - |
| 1787846267 | 28.33° C | 65% | 1017.3 hPa | 0 mm | - | 726 W/m² | - |
| 1787845963 | 27.78° C | 65% | 1017.3 hPa | 0 mm | - | 724 W/m² | - |
| 1787845659 | 28.89° C | 63% | 1017.6 hPa | 0 mm | - | 714 W/m² | - |
| 1787845358 | 28.33° C | 63% | 1017.6 hPa | 0 mm | - | 708 W/m² | - |
* Rain latest hour (hover to see other rain measurements)
** Current wind speed in m/s (hover to see current wind gust speed)